Location: Albany
(35.0170°S, 117.8920°E)
Time: 17:26:07
(UTC+08:00)

Transit 2A - Pass Details

Date: 25 January 2021
Orbit: 601 x 958 km, 66.7° (Epoch: 02 March)

Event Time Altitude Azimuth Distance (km) Brightness Sun altitude
Rises 01:03:40 0° 207° (SSW) 3,560 10.1 -35.0°
Reaches altitude 10° 01:06:10 10° 207° (SSW) 2,647 9.3 -34.9°
Enters shadow 01:10:23 46° 206° (SSW) 1,259 7.2 -34.7°
Maximum altitude 01:12:26 90° 148° (SSE) 965 - -34.6°
Drops below altitude 10° 01:18:49 10° 25° (NNE) 2,682 - -34.2°
Sets 01:21:20 0° 25° (NNE) 3,609 - -34.1°
